Showing default

GSAT 6, 40880

Orbit data source: Space-Track

GSAT 6, 40880 is a payload satellite owned by ISRO (IN) in GEO that was launched on Thu, 27 Aug 2015 UTC via a GSLV MK II launch vehicle from the Sirharikota (SRI). Payload-class satellites include a variety of spacecraft equipped with specific instruments for various scientific and technological missions. These include communications satellites like Starlink; space stations such as the ISS; scientific satellites like the Hubble; Earth observation satellites from companies like Planet Labs, Umbra, and HawkEye 360; GPS; miniature CubeSats for education and research; and military/defense satellites.

Not visible in the next 10 days
Identifier
40880, 2015-041A
Orbit
GEO
Last TLE update
22 hours ago
Origin
Manufacturer
ISRO SAC/Banga
Mission
Operational Defense Communications
Bus & Motor
I2K, ISRO LAM
Mass
2,217 kg wet, 985 kg dry
Launch date (UTC)
2015-08-27 (10 years ago)
Launch vehicle
GSLV MK II
Launch site
Sirharikota (SRI)
Object type
Payload
Rocket body
Debris
Shape & HBR
Box + 2 Pan, 9.5 m
Radar Cross Section
13.236 m², Large (>1 m²)

Expand to show TLE details & history

TLE from 22 hours ago
0 GSAT 6
1 40880U 15041A   25189.45848326 -.00000146  00000-0  00000-0 0  9998
2 40880   1.0291  87.3470 0002946  19.0423  67.8084  1.00274305 36154
Epoch: 2025-07-08T11:00Z
TLE epoch observation values (Epoch: 2025-07-08T11:00:12.953Z)
Latitude
1.04041°
Longitude
82.52449°
Altitude
35,780.55 km
Speed
3.075 km/s
True Right ascension
11h 36m 55s
True Declination
1° 02' 22"
Sunlit
Object was in daylight at epoch
Visualization orbit readout
Latitude
0.83416°
Longitude
47.30391°
Altitude
35,774.795 km
Speed
3.076 km/s
Apparent Right ascension
09h 12m 52s
Apparent Declination
-4° 12' 25"
Sunlit
Object is in daylight
Visualization observer readout
Local Sidereal Time
20:45:30
Azimuth
348.408° N
Elevation
-53.76°
Doppler factor
1
Orbital elements
Apogee altitude
35,799.38 km
Perigee altitude
35,774.537 km
Semi-major axis
42,165.095 km
Eccentricity
0.00029
Inclination
1.0291°
RAAN
87.347°
Arg. of periapsis
19.0423°
True anomaly
Unknown
Mean anomaly
67.8084°
Eccentric anomaly
Unknown
Mean motion
0.25068 °/min
Orbital period
1,436.11 mins
BSTAR
0
Loading historical data...
40880 neighbors
Loading maneuver chart data...
Loading SW <> Apogee altitude chart data...
Loading historical data...
Loading historical data...
Loading historical data...
Loading historical data...
Loading historical data...
Loading historical data...
Loading historical data...
Other satellites on launch #41 in the year 2015 (2015-08-27 UTC)

GSAT 6 Visibility

Observer location: undefined°, undefined°

GSAT 6 is likely not visible in the next few days
Span
Click to sort rows by Start time (UTC) header in descending order
Start Az.
Max El. time (UTC)
Max El. Az.
Max El.
End time (UTC)
End Az.
|